MST,Max TemperatureF,Mean TemperatureF,Min TemperatureF,Max Dew PointF,MeanDew PointF,Min DewpointF,Max Humidity, Mean Humidity, Min Humidity, Max Sea Level PressureIn, Mean Sea Level PressureIn, Min Sea Level PressureIn, Max VisibilityMiles, Mean VisibilityMiles, Min VisibilityMiles, Max Wind SpeedMPH, Mean Wind SpeedMPH, Max Gust SpeedMPH,PrecipitationIn, CloudCover, Events, WindDirDegrees
2013-1-1,42,30,18,17,14,12,80,55,29,30.27,30.21,30.17,10,10,10,9,7,10,0.00,0,,58
2013-1-2,50,36,22,13,11,8,65,42,19,30.22,30.08,29.93,10,10,10,15,10,17,0.00,0,,48
2013-1-3,48,38,28,13,7,1,49,29,7,30.25,30.17,30.10,10,10,10,22,12,29,0.00,0,,28
2013-1-4,51,36,20,6,4,-1,56,34,12,30.28,30.23,30.15,10,10,10,12,5,12,0.00,0,,72
2013-1-5,52,34,16,10,6,3,61,38,14,30.33,30.25,30.17,10,10,10,7,2,8,0.00,0,,48
2013-1-6,54,39,24,21,13,6,50,35,19,30.14,29.98,29.86,10,10,10,24,7,30,0.00,2,,220
2013-1-7,53,41,28,27,17,11,75,47,19,30.03,29.92,29.85,10,10,10,23,10,28,0.00,1,,61
2013-1-8,57,44,30,21,14,10,52,35,18,30.17,30.07,29.96,10,9,2,15,9,18,0.00,0,,61
2013-1-9,64,47,30,23,22,20,61,41,20,30.25,30.07,29.87,10,10,10,15,7,17,0.00,0,,190
2013-1-10,54,43,32,34,25,17,75,51,26,29.83,29.72,29.62,10,8,1,33,14,41,0.05,4,Rain-Snow,201
2013-1-11,40,29,18,18,10,0,63,41,19,29.98,29.92,29.76,10,10,10,18,8,24,0.00,2,,216
2013-1-12,37,26,15,15,7,0,80,51,21,30.07,30.01,29.93,10,10,10,15,5,18,0.00,0,,101
2013-1-13,35,23,10,6,4,0,73,50,26,30.13,30.07,30.01,10,10,10,17,4,20,0.00,0,,51
2013-1-14,32,22,12,2,-1,-5,61,41,21,30.32,30.21,30.08,10,10,10,18,12,22,0.00,0,,28
2013-1-15,39,25,11,7,2,-3,63,44,24,30.47,30.40,30.32,10,10,10,21,9,24,0.00,0,,62
2013-1-16,49,36,22,16,14,8,68,47,26,30.43,30.35,30.26,10,10,10,18,11,23,0.00,0,,58
2013-1-17,58,43,28,16,14,12,58,38,17,30.34,30.26,30.18,10,10,10,16,8,18,0.00,0,,50
2013-1-18,57,39,21,16,15,13,65,42,19,30.26,30.21,30.14,10,10,10,14,5,17,0.00,0,,49
2013-1-19,59,41,22,18,16,14,68,44,19,30.29,30.22,30.16,10,10,10,9,6,10,0.00,0,,65
2013-1-20,60,42,23,18,13,10,60,38,15,30.25,30.17,30.09,10,10,10,14,6,18,0.00,0,,76
2013-1-21,63,44,25,13,9,5,46,28,10,30.22,30.13,30.08,10,10,10,9,6,10,0.00,0,,59
2013-1-22,67,46,25,12,8,6,50,30,9,30.20,30.15,30.10,10,10,10,10,3,13,0.00,0,,67
2013-1-23,68,51,33,24,20,12,48,32,15,30.27,30.11,30.04,10,10,10,9,3,12,0.00,0,,292
2013-1-24,59,50,41,46,38,21,96,60,23,30.26,30.13,30.02,10,10,8,10,6,12,T,6,Rain,178
2013-1-25,63,52,41,47,44,40,100,76,52,30.27,30.12,29.95,10,8,1,10,3,12,0.18,7,Rain,52
2013-1-26,53,51,48,52,48,46,100,97,93,29.99,29.88,29.76,10,7,0,15,5,20,0.50,8,Fog-Rain,230
2013-1-27,57,52,46,47,43,38,93,72,51,29.93,29.81,29.74,10,10,10,29,14,36,0.00,4,,201
2013-1-28,46,38,30,39,30,16,89,66,43,29.98,29.87,29.75,10,9,2,20,6,29,0.03,6,Rain-Snow,277
2013-1-29,50,38,25,28,22,15,81,58,34,30.17,30.03,29.97,10,10,10,12,4,13,0.00,0,,227
2013-1-30,56,42,27,30,26,22,85,59,32,30.29,30.23,30.17,10,10,10,15,4,20,0.00,0,,69
2013-1-31,60,45,29,31,29,26,85,57,29,30.22,30.18,30.11,10,10,10,7,5,7,0.00,0,,62